SCP
1 1 1 1 1 1 1 1 1 1 1 1 1 1 1 1 1 1 0 0 0 0 0 0 0 0 0 0 0 0 0 0 0 0 0 0 0 0 0 0 0 0 0
1 1 1 1 1 1 1 1 1 1 1 1 1 1 1 1 1 1 1 0 0 0 0 0 0 0 0 0 0 0 0 0 0 0 0 0 0 0 0 0 0 0 0
1 1 1 1 1 1 1 1 1 1 1 1 1 1 1 1 1 1 1 0 0 0 0 0 0 0 0 0 0 0 0 0 0 0 0 0 0 0 0 0 0 0 0
1 1 1 1 1 1 1 1 1 1 1 1 1 1 1 1 1 1 1 0 0 0 0 0 0 0 0 0 0 0 0 0 0 0 0 0 0 0 0 0 0 0 0
0 0 0 1 1 1 1 1 1 1 1 1 1 1 1 1 1 1 1 0 0 0 0 0 0 0 0 0 0 0 0 0 0 0 0 0 0 0 0 0 0 0 0
0 0 0 1 1 1 1 1 1 0 0 1 1 1 1 1 1 1 0 0 0 0 0 0 0 0 0 0 0 0 0 0 0 0 0 0 0 0 0 0 0 0 0
0 0 0 1 1 1 1 0 0 0 0 0 0 0 1 0 0 0 0 0 0 0 0 0 0 0 0 0 0 0 0 0 0 0 0 0 0 0 0 0 0 0 0
0 0 0 0 1 1 0 0 0 0 0 0 0 0 0 0 0 0 0 0 0 0 0 0 0 0 0 0 0 0 0 0 0 0 0 0 0 0 0 0 0 0 0
0 0 0 0 0 0 0 0 0 0 0 0 0 0 0 0 0 0 0 0 0 0 0 0 0 0 0 0 0 0 0 0 0 0 0 0 0 0 0 0 0 0 0
0 0 0 0 0 0 0 0 0 0 0 0 0 0 0 0 0 0 0 0 0 0 0 0 0 0 0 0 0 0 0 0 0 0 0 0 0 0 0 0 0 0 0
0 0 0 0 0 0 0 0 0 0 0 0 0 0 0 0 0 0 0 0 0 0 0 0 0 0 0 0 0 0 0 0 0 0 0 0 0 0 0 0 0 0 0
0 0 0 0 0 0 0 0 0 0 0 0 0 0 0 0 0 0 0 0 0 0 0 0 0 0 0 0 0 0 0 0 0 0 0 0 0 0 0 0 0 0 0
0 0 0 0 0 0 0 0 0 0 0 0 0 0 0 0 0 0 0 0 0 0 0 0 0 0 0 0 0 0 0 0 0 0 0 0 0 0 0 0 0 0 0
0 0 0 0 0 0 0 0 0 0 0 0 0 0 0 0 0 0 0 0 0 0 0 0 0 0 0 0 0 0 0 0 0 0 0 0 0 0 0 0 0 0 0
0 0 0 0 0 0 0 0 0 0 0 0 0 0 0 0 0 0 0 0 0 0 0 0 0 0 0 0 0 0 0 0 0 0 0 0 0 0 0 0 0 0 0
0 0 0 0 0 0 0 0 0 0 0 0 0 0 0 0 0 0 0 0 0 0 0 0 0 0 0 0 0 0 0 0 0 0 0 0 0 0 0 0 0 0 0
0 0 0 0 0 0 0 0 0 0 0 0 0 0 0 0 0 0 0 1 1 1 1 0 0 0 0 0 0 0 0 0 0 0 0 0 0 0 0 0 0 0 0
0 0 0 0 0 0 0 0 1 1 1 0 0 0 0 0 0 1 1 1 1 1 1 1 1 0 0 0 0 0 0 0 0 0 0 0 0 0 0 0 0 0 0
0 0 0 0 0 0 0 1 1 1 1 1 1 1 1 1 1 1 1 1 1 1 1 1 1 1 0 0 0 0 0 0 0 0 0 0 0 0 0 0 0 0 0
1 0 0 1 1 1 1 1 1 1 1 1 1 1 1 1 1 1 1 1 1 1 1 1 1 1 1 0 0 0 0 0 0 1 0 0 0 0 0 0 0 0 0
0 0 0 1 1 1 1 1 1 1 1 1 1 1 1 1 1 1 1 1 1 1 1 1 1 1 1 0 0 0 0 0 0 1 1 0 0 0 0 0 0 0 0
0 0 0 0 1 1 1 1 1 1 1 1 1 1 1 1 1 1 1 1 1 1 1 1 1 1 1 0 0 0 0 0 0 0 0 0 0 0 0 0 0 0 0
0 0 0 0 0 1 1 1 1 1 1 1 1 1 1 1 1 1 1 1 1 1 1 1 1 1 1 0 0 0 0 0 0 0 0 0 0 0 0 0 0 0 0
0 0 0 0 0 0 1 1 1 1 1 1 1 1 1 1 1 1 1 1 1 1 1 1 1 1 1 0 0 0 0 0 0 0 0 0 0 0 0 0 0 0 0
0 0 0 0 0 0 0 0 1 1 1 1 1 1 1 1 1 1 0 0 0 0 0 0 0 0 0 0 0 0 0 0 0 0 0 0 0 0 0 0 0 0 0
0 0 0 0 0 0 0 0 0 1 1 1 1 1 1 1 1 1 0 0 0 0 0 0 0 0 0 0 0 0 0 0 0 0 0 0 0 0 0 0 0 0 0
Wind_Speed
9 10 11 11 12 13 14 15 14 14 11 9 9 9 8 7 6 6 8 8 8 8 6 5 6 5 4 4 5 4 5 4 3 3 4 3 3 2 2 3 3 4 3
9 9 10 11 12 13 14 14 15 14 13 10 8 7 8 7 7 6 7 8 8 8 8 6 6 5 4 5 5 4 3 3 3 3 3 4 5 5 3 3 4 3 4
9 10 11 12 12 13 14 13 14 14 14 12 9 7 7 6 7 8 7 8 8 8 7 7 6 5 6 5 6 5 6 4 4 3 3 3 2 5 5 3 3 3 3
9 9 10 12 13 13 13 13 14 13 14 13 12 13 10 9 9 7 7 8 8 8 8 7 7 6 5 5 7 6 5 5 4 4 3 3 3 3 4 6 5 4 4
9 9 10 11 12 12 13 13 14 13 13 13 13 12 10 8 7 7 8 8 8 8 8 8 7 7 5 5 4 4 5 5 5 4 4 4 3 5 4 3 4 5 4
7 8 8 10 11 12 12 13 14 13 13 13 13 12 12 10 10 10 9 8 7 7 9 8 7 7 5 6 6 5 6 4 3 4 4 4 4 5 5 4 5 4 4
7 8 9 10 11 12 12 13 14 13 14 13 12 12 12 12 12 11 10 9 8 7 9 8 7 6 6 6 5 5 4 5 4 5 4 4 4 3 4 4 4 4 3
7 8 9 10 10 12 12 13 14 13 13 14 12 11 12 9 9 11 10 10 8 8 9 9 8 7 7 7 6 5 5 4 4 5 4 3 3 3 4 4 4 5 5
7 8 9 10 11 12 12 13 14 13 13 13 12 12 12 10 10 10 10 9 7 7 9 9 8 8 8 7 7 4 5 5 5 5 6 5 3 3 3 4 5 5 5
8 9 9 10 10 11 11 12 13 13 13 13 12 11 12 11 10 10 11 9 9 8 9 9 9 9 8 8 7 6 6 5 5 4 3 4 4 3 3 4 4 5 6
9 9 9 10 11 11 11 11 12 13 13 13 12 11 11 12 12 11 11 10 10 10 10 10 10 9 9 9 8 7 7 7 6 6 6 6 4 4 4 4 4 5 5
9 10 10 10 11 11 12 12 12 13 13 13 12 12 12 12 12 12 12 11 11 11 11 10 10 10 10 9 9 9 8 8 8 7 7 7 6 6 6 4 5 5 4
8 9 10 10 10 11 12 12 13 13 14 14 13 13 12 12 12 12 11 11 11 11 11 11 11 11 10 10 10 9 9 8 8 8 8 8 7 8 7 6 6 6 6
8 9 9 10 10 10 11 12 13 13 13 14 14 13 13 12 12 12 11 11 11 11 11 11 11 10 10 11 10 10 9 9 8 8 8 8 9 9 9 8 8 7 7
7 8 9 9 10 11 11 11 12 13 13 14 14 13 13 12 12 12 12 12 11 12 11 11 11 10 10 10 11 10 10 10 9 9 10 10 9 7 7 7 8 8 8
6 7 8 9 10 11 11 12 12 13 13 14 14 13 13 13 13 12 12 12 12 11 11 11 11 11 10 9 10 10 10 10 10 10 10 10 10 10 11 10 10 9 9
3 5 6 7 8 9 10 11 12 12 13 13 13 13 13 13 13 13 13 12 12 11 11 11 11 11 9 9 12 12 10 10 9 10 9 9 9 11 11 13 14 14 14
1 2 3 5 6 7 8 9 11 12 12 12 12 12 12 12 11 12 12 11 10 10 10 10 10 10 9 11 12 12 12 11 10 10 10 10 9 9 9 10 11 12 13
3 1 1 2 4 6 7 8 9 10 10 10 10 11 11 11 11 10 10 9 9 9 9 9 10 10 9 11 12 11 9 9 11 11 10 10 10 7 7 10 11 11 11
4 3 2 2 3 4 6 8 8 8 8 9 9 9 9 9 9 9 8 8 8 8 8 8 8 9 8 9 11 12 8 9 9 9 9 9 10 7 8 11 11 12 11
7 6 5 5 3 2 5 6 6 6 6 6 6 6 6 7 6 6 6 6 7 7 6 6 5 5 5 6 10 11 8 8 8 7 7 6 10 10 10 11 11 10 8
8 8 7 7 6 5 5 6 5 4 4 5 5 5 4 4 4 5 4 4 5 5 5 5 5 4 4 4 7 10 10 7 7 6 6 3 6 10 11 10 9 9 8
8 8 9 9 9 8 7 7 5 4 5 6 6 5 4 3 3 3 4 3 3 2 3 3 3 3 3 3 5 8 9 9 7 5 4 3 4 7 9 11 10 9 9
9 9 10 11 10 9 8 8 7 6 7 7 6 5 5 5 4 2 2 2 2 2 2 2 2 2 2 1 1 3 4 7 7 6 5 7 7 8 7 6 8 8 7
10 10 10 10 10 9 9 8 7 7 7 7 6 5 5 5 5 5 4 3 3 3 1 0 0 0 0 2 3 2 1 2 2 4 5 5 5 5 6 6 6 6 6
10 11 11 11 10 9 9 8 7 7 6 6 5 4 4 4 4 5 5 9 7 8 9 8 5 5 5 3 3 2 2 3 4 4 5 4 4 5 5 5 5 5 5
Wind_Direction
188 184 184 183 182 182 180 179 180 176 173 174 176 178 179 177 179 184 178 181 182 179 188 182 169 198 193 190 183 180 170 185 183 191 178 174 182 179 188 208 206 178 180
188 185 185 185 185 184 185 183 181 177 178 178 178 184 178 179 179 184 175 182 185 184 188 190 189 193 186 187 189 200 204 179 194 222 203 189 177 186 183 188 197 193 187
198 189 190 191 190 188 188 187 183 179 181 179 174 171 165 172 178 181 177 182 185 190 192 189 199 189 198 186 194 196 210 200 192 235 257 244 208 158 162 186 187 195 207
199 194 193 192 192 190 186 185 183 183 181 180 180 177 181 184 184 180 174 176 184 188 188 192 194 198 202 182 201 193 208 217 207 191 250 298 342 268 171 179 178 185 209
196 196 192 189 188 186 183 182 181 181 181 183 184 185 189 186 175 172 168 177 180 189 189 190 189 193 199 189 205 185 220 219 231 214 205 209 216 253 260 199 179 192 198
190 190 186 183 182 181 180 177 176 179 180 184 185 189 186 180 175 174 171 179 179 187 190 190 188 193 190 184 196 200 205 230 234 246 232 225 223 224 234 227 216 211 191
180 178 177 177 175 174 173 173 172 177 181 183 186 189 186 183 181 179 179 183 183 188 187 189 188 190 187 187 190 195 201 202 207 227 235 240 248 251 250 253 240 232 204
170 172 173 172 170 168 169 170 173 176 179 182 185 188 186 186 185 186 182 187 191 190 179 185 186 188 186 186 185 194 190 193 206 218 234 242 237 237 242 253 253 239 228
166 169 169 168 169 168 169 173 176 174 176 179 179 184 187 190 186 183 187 188 189 181 178 187 188 187 187 188 190 201 195 192 207 204 202 230 218 229 236 245 257 263 256
169 166 167 166 167 169 170 173 172 171 173 175 178 181 185 186 183 185 189 186 184 181 180 189 191 190 190 191 200 197 194 201 208 222 218 226 223 214 226 233 241 259 273
171 168 167 167 167 166 165 169 171 171 174 178 180 181 184 184 185 189 189 187 185 183 186 190 194 194 195 195 200 211 193 206 206 210 210 217 236 229 224 225 233 241 252
170 168 166 167 168 168 169 172 176 176 177 179 180 182 184 184 186 188 190 188 187 189 191 193 197 200 200 200 204 211 204 208 210 212 214 216 212 216 240 234 234 237 248
170 168 169 172 174 174 176 177 180 180 179 179 182 184 185 187 190 190 189 189 190 192 194 195 200 203 203 204 209 212 211 213 216 215 215 218 217 217 222 228 236 232 226
176 175 176 179 179 179 180 182 183 183 182 182 185 186 189 190 192 193 190 191 194 195 196 199 202 205 206 208 210 212 215 219 221 221 222 224 223 222 224 225 234 242 244
179 180 182 183 184 184 183 186 185 186 185 186 190 189 191 191 194 194 194 194 198 201 200 202 205 207 209 212 210 211 214 218 222 223 224 227 231 236 236 242 233 231 238
184 189 189 188 190 190 189 188 189 188 188 191 193 191 193 193 195 196 197 197 200 204 202 205 207 208 213 194 198 218 221 219 224 227 227 228 221 225 228 247 259 261 249
193 198 198 197 196 196 192 192 191 187 190 195 196 193 195 197 198 200 199 201 202 203 205 208 210 212 210 181 191 209 230 229 229 230 231 235 227 216 227 223 229 242 249
302 218 208 200 199 196 191 192 188 186 188 193 195 193 196 199 200 202 204 204 204 204 205 208 211 213 208 185 193 199 223 237 236 235 234 238 242 232 233 238 234 235 233
5 340 252 200 187 187 184 181 183 182 184 188 191 192 193 194 196 199 200 200 201 204 207 209 212 216 213 187 190 194 218 228 235 237 237 238 240 231 221 240 247 249 248
33 34 55 107 140 171 173 170 174 177 183 186 187 186 185 188 191 195 198 198 200 205 209 212 215 218 222 192 188 196 223 230 233 232 234 230 239 236 209 234 246 250 252
46 49 57 63 73 126 154 157 159 166 171 168 166 169 172 177 182 187 192 194 196 198 204 206 208 212 221 189 185 196 227 238 238 240 237 225 200 216 217 230 246 254 267
54 56 61 58 52 66 104 114 117 127 134 137 138 142 151 163 163 166 173 183 193 190 190 197 206 206 203 202 185 191 217 254 253 253 256 246 188 204 217 226 241 251 256
60 62 67 65 57 57 71 89 91 107 118 119 118 118 121 124 126 137 148 157 171 191 197 201 205 209 200 182 175 187 207 230 248 263 279 277 237 223 224 226 232 239 243
68 67 68 68 62 55 59 67 76 86 97 102 104 106 109 109 107 111 124 135 150 175 190 211 212 205 197 212 196 196 204 213 231 250 242 231 236 242 259 240 221 232 247
68 66 67 67 64 60 58 57 65 80 88 90 94 100 103 102 97 84 57 67 63 35 36 71 99 322 94 38 11 334 299 288 280 271 252 245 239 239 243 250 253 252 249
70 67 65 66 65 64 63 59 61 73 84 88 85 87 91 90 96 104 94 58 64 69 60 43 36 63 57 52 46 19 332 306 298 273 264 267 267 270 272 270 267 259 257